Wetterdaten: Sonntag, 23.02.2014
Datum Zeit Temperatur Luftfeuchte Luftdruck Regen Wind Richtung Richtung Taupunkt Windchill Windben
23.02.2014 00:00 0,0 C 76 % 1019,5 hPa 0,0 l/m 2,1 km/h (1 Bft) O-SO 112 -3,7 C 0,1 C 2,9 km/h (1 Bft)
23.02.2014 00:05 -0,2 C 76 % 1019,5 hPa 0,0 l/m 2,1 km/h (1 Bft) O-SO 112 -3,9 C 0,0 C 0,0 km/h (0 Bft)
23.02.2014 00:10 -0,3 C 76 % 1019,6 hPa 0,0 l/m 0,5 km/h (0 Bft) O-SO 112 -4,0 C -0,2 C 0,0 km/h (0 Bft)
23.02.2014 00:15 -0,2 C 76 % 1019,6 hPa 0,0 l/m 0,0 km/h (0 Bft) O-SO 112 -3,9 C -0,2 C 0,0 km/h (0 Bft)
23.02.2014 00:20 -0,1 C 77 % 1019,6 hPa 0,0 l/m 0,0 km/h (0 Bft) SO 135 -3,6 C -0,2 C 0,0 km/h (0 Bft)
23.02.2014 00:25 -0,2 C 77 % 1019,6 hPa 0,0 l/m 0,0 km/h (0 Bft) O-SO 112 -3,7 C -0,2 C 0,0 km/h (0 Bft)
23.02.2014 00:30 0,1 C 77 % 1019,8 hPa 0,0 l/m 1,0 km/h (0 Bft) O-SO 112 -3,4 C -0,2 C 0,0 km/h (0 Bft)
23.02.2014 00:35 0,1 C 77 % 1019,8 hPa 0,0 l/m 2,4 km/h (1 Bft) O-SO 112 -3,4 C 0,0 C 6,0 km/h (2 Bft)
23.02.2014 00:40 0,1 C 76 % 1019,8 hPa 0,0 l/m 4,3 km/h (1 Bft) O-SO 112 -3,6 C -1,2 C 8,5 km/h (2 Bft)
23.02.2014 00:45 0,2 C 76 % 1019,8 hPa 0,0 l/m 5,6 km/h (1 Bft) O 90 -3,5 C -1,6 C 5,3 km/h (1 Bft)
23.02.2014 00:50 0,2 C 75 % 1019,9 hPa 0,0 l/m 5,5 km/h (1 Bft) O-SO 112 -3,7 C -1,4 C 8,7 km/h (2 Bft)
23.02.2014 00:55 0,2 C 75 % 1019,9 hPa 0,0 l/m 4,3 km/h (1 Bft) O-SO 112 -3,7 C -0,8 C 2,6 km/h (1 Bft)
23.02.2014 01:00 0,3 C 76 % 1019,9 hPa 0,0 l/m 2,9 km/h (1 Bft) O 90 -3,4 C 0,1 C 0,0 km/h (0 Bft)
23.02.2014 01:05 0,3 C 76 % 1019,9 hPa 0,0 l/m 2,6 km/h (1 Bft) O 90 -3,4 C 0,3 C 3,9 km/h (1 Bft)
23.02.2014 01:10 0,3 C 76 % 1020,1 hPa 0,0 l/m 1,8 km/h (1 Bft) O 90 -3,4 C 0,5 C 2,4 km/h (1 Bft)
23.02.2014 01:15 0,4 C 76 % 1020,1 hPa 0,0 l/m 1,3 km/h (1 Bft) O 90 -3,3 C 0,5 C 0,0 km/h (0 Bft)
23.02.2014 01:20 0,2 C 76 % 1020,1 hPa 0,0 l/m 0,5 km/h (0 Bft) SO 135 -3,5 C 0,5 C 0,0 km/h (0 Bft)
23.02.2014 01:25 0,3 C 76 % 1020,1 hPa 0,0 l/m 0,3 km/h (0 Bft) S 180 -3,4 C 0,4 C 0,0 km/h (0 Bft)
23.02.2014 01:30 0,3 C 77 % 1020,2 hPa 0,0 l/m 0,3 km/h (0 Bft) SO 135 -3,2 C 0,4 C 0,0 km/h (0 Bft)
23.02.2014 01:33 0,2 C 77 % 1020,2 hPa 0,0 l/m 0,0 km/h (0 Bft) S 180 -3,3 C 0,3 C 0,0 km/h (0 Bft)
23.02.2014 01:35 0,2 C 77 % 1020,2 hPa 0,0 l/m 0,0 km/h (0 Bft) S 180 -3,3 C 0,3 C 0,0 km/h (0 Bft)
23.02.2014 01:40 0,1 C 77 % 1020,2 hPa 0,0 l/m 0,0 km/h (0 Bft) S 180 -3,4 C 0,3 C 0,0 km/h (0 Bft)
23.02.2014 01:45 0,1 C 77 % 1020,2 hPa 0,0 l/m 0,0 km/h (0 Bft) S 180 -3,4 C 0,2 C 0,0 km/h (0 Bft)
23.02.2014 01:50 0,1 C 77 % 1020,3 hPa 0,0 l/m 0,0 km/h (0 Bft) S 180 -3,4 C 0,1 C 0,0 km/h (0 Bft)
23.02.2014 01:55 0,1 C 78 % 1020,3 hPa 0,0 l/m 0,2 km/h (0 Bft) N-NW 337 -3,3 C 0,1 C 1,8 km/h (1 Bft)
23.02.2014 02:00 0,1 C 78 % 1020,3 hPa 0,0 l/m 0,2 km/h (0 Bft) O-NO 67 -3,3 C 0,1 C 0,0 km/h (0 Bft)
23.02.2014 02:05 0,1 C 78 % 1020,3 hPa 0,0 l/m 0,3 km/h (0 Bft) S-SO 157 -3,3 C 0,1 C 1,9 km/h (1 Bft)
23.02.2014 02:10 -0,1 C 78 % 1020,3 hPa 0,0 l/m 0,5 km/h (0 Bft) S-SO 157 -3,5 C 0,0 C 0,0 km/h (0 Bft)
23.02.2014 02:15 -0,1 C 78 % 1020,3 hPa 0,0 l/m 0,3 km/h (0 Bft) S 180 -3,5 C 0,0 C 0,0 km/h (0 Bft)
23.02.2014 02:20 -0,1 C 78 % 1020,3 hPa 0,0 l/m 0,0 km/h (0 Bft) S-SO 157 -3,5 C 0,0 C 0,0 km/h (0 Bft)
23.02.2014 02:25 0,0 C 78 % 1020,3 hPa 0,0 l/m 0,2 km/h (0 Bft) NO 45 -3,4 C 0,0 C 0,0 km/h (0 Bft)
23.02.2014 02:30 0,0 C 78 % 1020,4 hPa 0,0 l/m 0,2 km/h (0 Bft) NO 45 -3,4 C 0,0 C 0,0 km/h (0 Bft)
23.02.2014 02:35 0,0 C 79 % 1020,4 hPa 0,0 l/m 0,0 km/h (0 Bft) NO 45 -3,2 C 0,0 C 0,0 km/h (0 Bft)
23.02.2014 02:40 0,0 C 79 % 1020,4 hPa 0,0 l/m 0,0 km/h (0 Bft) NO 45 -3,2 C 0,0 C 0,0 km/h (0 Bft)
23.02.2014 02:45 0,0 C 79 % 1020,4 hPa 0,0 l/m 0,2 km/h (0 Bft) NO 45 -3,2 C 0,0 C 1,8 km/h (1 Bft)
23.02.2014 02:50 0,1 C 80 % 1020,3 hPa 0,0 l/m 1,0 km/h (0 Bft) N-NW 337 -2,9 C 0,0 C 4,3 km/h (1 Bft)
23.02.2014 02:55 0,1 C 79 % 1020,3 hPa 0,0 l/m 2,1 km/h (1 Bft) S-SW 202 -3,1 C 0,1 C 3,2 km/h (1 Bft)
23.02.2014 03:00 0,0 C 79 % 1020,3 hPa 0,0 l/m 1,8 km/h (1 Bft) N 360 -3,2 C 0,0 C 0,0 km/h (0 Bft)
23.02.2014 03:05 -0,1 C 79 % 1020,3 hPa 0,0 l/m 0,6 km/h (0 Bft) S-SW 202 -3,3 C 0,0 C 0,0 km/h (0 Bft)
23.02.2014 03:10 -0,1 C 80 % 1020,4 hPa 0,0 l/m 0,5 km/h (0 Bft) NO 45 -3,1 C -0,2 C 0,0 km/h (0 Bft)
23.02.2014 03:15 -0,3 C 79 % 1020,4 hPa 0,0 l/m 0,5 km/h (0 Bft) NO 45 -3,5 C -0,3 C 0,0 km/h (0 Bft)
23.02.2014 03:20 -0,2 C 79 % 1020,4 hPa 0,0 l/m 0,2 km/h (0 Bft) O 90 -3,4 C -0,2 C 0,0 km/h (0 Bft)
23.02.2014 03:25 -0,2 C 79 % 1020,4 hPa 0,0 l/m 0,2 km/h (0 Bft) S 180 -3,4 C -0,3 C 0,0 km/h (0 Bft)
23.02.2014 03:30 -0,2 C 79 % 1020,5 hPa 0,0 l/m 0,0 km/h (0 Bft) O-SO 112 -3,4 C -0,2 C 0,0 km/h (0 Bft)
23.02.2014 03:35 -0,1 C 79 % 1020,5 hPa 0,0 l/m 0,3 km/h (0 Bft) O-NO 67 -3,3 C -0,2 C 2,6 km/h (1 Bft)
23.02.2014 03:40 -0,1 C 79 % 1020,5 hPa 0,0 l/m 0,3 km/h (0 Bft) SO 135 -3,3 C -0,2 C 0,0 km/h (0 Bft)
23.02.2014 03:45 -0,1 C 79 % 1020,5 hPa 0,0 l/m 0,2 km/h (0 Bft) SO 135 -3,3 C -0,2 C 0,0 km/h (0 Bft)
23.02.2014 03:50 -0,3 C 79 % 1020,6 hPa 0,0 l/m 0,0 km/h (0 Bft) SO 135 -3,5 C -0,2 C 0,0 km/h (0 Bft)
23.02.2014 03:55 -0,3 C 79 % 1020,6 hPa 0,0 l/m 0,0 km/h (0 Bft) SO 135 -3,5 C -0,2 C 0,0 km/h (0 Bft)
23.02.2014 04:00 -0,3 C 80 % 1020,6 hPa 0,0 l/m 0,0 km/h (0 Bft) O-SO 112 -3,3 C -0,2 C 0,0 km/h (0 Bft)
23.02.2014 04:05 -0,3 C 80 % 1020,6 hPa 0,0 l/m 0,5 km/h (0 Bft) O 90 -3,3 C -0,3 C 2,6 km/h (1 Bft)
23.02.2014 04:10 -0,3 C 80 % 1020,8 hPa 0,0 l/m 0,6 km/h (0 Bft) SO 135 -3,3 C -0,3 C 0,0 km/h (0 Bft)
23.02.2014 04:15 -0,3 C 80 % 1020,8 hPa 0,0 l/m 0,5 km/h (0 Bft) O-NO 67 -3,3 C -0,3 C 0,0 km/h (0 Bft)
23.02.2014 04:20 -0,3 C 80 % 1020,8 hPa 0,0 l/m 0,0 km/h (0 Bft) O-NO 67 -3,3 C -0,4 C 0,0 km/h (0 Bft)
23.02.2014 04:25 -0,4 C 80 % 1020,8 hPa 0,0 l/m 0,0 km/h (0 Bft) O 90 -3,4 C -0,4 C 0,0 km/h (0 Bft)
23.02.2014 04:30 -0,4 C 80 % 1020,9 hPa 0,0 l/m 0,0 km/h (0 Bft) O-NO 67 -3,4 C -0,5 C 0,0 km/h (0 Bft)
23.02.2014 04:35 -0,4 C 80 % 1020,9 hPa 0,0 l/m 0,0 km/h (0 Bft) O-NO 67 -3,4 C -0,5 C 0,0 km/h (0 Bft)
23.02.2014 04:40 -0,4 C 81 % 1020,9 hPa 0,0 l/m 0,0 km/h (0 Bft) O-NO 67 -3,3 C -0,6 C 0,0 km/h (0 Bft)
23.02.2014 04:45 -0,3 C 81 % 1020,9 hPa 0,0 l/m 0,0 km/h (0 Bft) S 180 -3,2 C -0,6 C 0,0 km/h (0 Bft)
23.02.2014 04:50 -0,3 C 81 % 1021,2 hPa 0,0 l/m 0,3 km/h (0 Bft) O-NO 67 -3,2 C -0,5 C 2,6 km/h (1 Bft)
23.02.2014 04:55 -0,2 C 81 % 1021,2 hPa 0,0 l/m 1,3 km/h (1 Bft) O-NO 67 -3,1 C -0,4 C 0,0 km/h (0 Bft)
23.02.2014 05:00 -0,1 C 81 % 1021,2 hPa 0,0 l/m 1,0 km/h (0 Bft) O-SO 112 -3,0 C -0,3 C 0,0 km/h (0 Bft)
23.02.2014 05:05 -0,2 C 81 % 1021,2 hPa 0,0 l/m 0,0 km/h (0 Bft) O 90 -3,1 C -0,2 C 0,0 km/h (0 Bft)
23.02.2014 05:10 -0,2 C 82 % 1021,1 hPa 0,0 l/m 0,0 km/h (0 Bft) S 180 -2,9 C -0,2 C 1,9 km/h (1 Bft)
23.02.2014 05:15 -0,2 C 83 % 1021,1 hPa 0,0 l/m 0,0 km/h (0 Bft) NW 315 -2,7 C -0,3 C 0,0 km/h (0 Bft)
23.02.2014 05:20 -0,3 C 82 % 1021,1 hPa 0,0 l/m 0,8 km/h (0 Bft) O-NO 67 -3,0 C -0,3 C 4,0 km/h (1 Bft)
23.02.2014 05:25 -0,1 C 83 % 1021,1 hPa 0,0 l/m 1,4 km/h (1 Bft) O 90 -2,6 C -0,2 C 0,0 km/h (0 Bft)
23.02.2014 05:30 -0,1 C 83 % 1021,5 hPa 0,0 l/m 1,8 km/h (1 Bft) O-NO 67 -2,6 C -0,2 C 1,8 km/h (1 Bft)
23.02.2014 05:35 0,1 C 83 % 1021,5 hPa 0,0 l/m 1,0 km/h (0 Bft) O 90 -2,4 C 0,0 C 0,0 km/h (0 Bft)
23.02.2014 05:40 -0,1 C 83 % 1021,5 hPa 0,0 l/m 0,5 km/h (0 Bft) NO 45 -2,6 C 0,0 C 2,1 km/h (1 Bft)
23.02.2014 05:45 -0,1 C 83 % 1021,5 hPa 0,0 l/m 0,3 km/h (0 Bft) O-SO 112 -2,6 C 0,0 C 0,0 km/h (0 Bft)
23.02.2014 05:50 -0,1 C 83 % 1021,4 hPa 0,0 l/m 0,2 km/h (0 Bft) O-SO 112 -2,6 C 0,0 C 0,0 km/h (0 Bft)
23.02.2014 05:55 -0,1 C 83 % 1021,4 hPa 0,0 l/m 0,0 km/h (0 Bft) O 90 -2,6 C 0,0 C 0,0 km/h (0 Bft)
23.02.2014 06:00 0,0 C 84 % 1021,4 hPa 0,0 l/m 0,0 km/h (0 Bft) O 90 -2,4 C 0,0 C 0,0 km/h (0 Bft)
23.02.2014 06:05 -0,1 C 83 % 1021,4 hPa 0,0 l/m 0,0 km/h (0 Bft) O-SO 112 -2,6 C 0,0 C 0,0 km/h (0 Bft)
23.02.2014 06:10 -0,2 C 83 % 1021,7 hPa 0,0 l/m 0,0 km/h (0 Bft) O-SO 112 -2,7 C 0,0 C 0,0 km/h (0 Bft)
23.02.2014 06:15 -0,2 C 83 % 1021,7 hPa 0,0 l/m 0,0 km/h (0 Bft) O-SO 112 -2,7 C 0,0 C 0,0 km/h (0 Bft)
23.02.2014 06:20 -0,1 C 84 % 1021,7 hPa 0,0 l/m 0,0 km/h (0 Bft) NO 45 -2,5 C 0,0 C 0,0 km/h (0 Bft)
23.02.2014 06:25 -0,1 C 84 % 1021,7 hPa 0,0 l/m 0,0 km/h (0 Bft) O-SO 112 -2,5 C 0,0 C 0,0 km/h (0 Bft)
23.02.2014 06:30 0,1 C 84 % 1021,7 hPa 0,0 l/m 0,2 km/h (0 Bft) O-SO 112 -2,3 C 0,0 C 0,0 km/h (0 Bft)
23.02.2014 06:33 0,1 C 84 % 1021,7 hPa 0,0 l/m 0,2 km/h (0 Bft) O-SO 112 -2,3 C 0,0 C 0,0 km/h (0 Bft)
23.02.2014 06:35 0,1 C 84 % 1021,7 hPa 0,0 l/m 0,2 km/h (0 Bft) O-SO 112 -2,3 C 0,0 C 0,0 km/h (0 Bft)
23.02.2014 06:40 0,0 C 84 % 1021,7 hPa 0,0 l/m 0,0 km/h (0 Bft) O-SO 112 -2,4 C 0,1 C 0,0 km/h (0 Bft)
23.02.2014 06:45 0,0 C 84 % 1021,7 hPa 0,0 l/m 0,0 km/h (0 Bft) O-SO 112 -2,4 C 0,1 C 0,0 km/h (0 Bft)
23.02.2014 06:50 0,0 C 84 % 1021,9 hPa 0,0 l/m 0,0 km/h (0 Bft) O-SO 112 -2,4 C 0,0 C 0,0 km/h (0 Bft)
23.02.2014 06:55 0,0 C 84 % 1021,9 hPa 0,0 l/m 0,0 km/h (0 Bft) O-SO 112 -2,4 C 0,0 C 0,0 km/h (0 Bft)
23.02.2014 07:00 0,0 C 84 % 1021,9 hPa 0,0 l/m 0,0 km/h (0 Bft) N-NO 22 -2,4 C 0,1 C 0,0 km/h (0 Bft)
23.02.2014 07:05 0,0 C 84 % 1021,9 hPa 0,0 l/m 0,0 km/h (0 Bft) O 90 -2,4 C 0,1 C 1,9 km/h (1 Bft)
23.02.2014 07:10 0,1 C 85 % 1022,1 hPa 0,0 l/m 0,6 km/h (0 Bft) N-NO 22 -2,1 C 0,1 C 2,7 km/h (1 Bft)
23.02.2014 07:15 0,1 C 85 % 1022,1 hPa 0,0 l/m 0,6 km/h (0 Bft) W-NW 292 -2,1 C 0,1 C 1,8 km/h (1 Bft)
23.02.2014 07:20 -0,1 C 85 % 1022,1 hPa 0,0 l/m 0,3 km/h (0 Bft) N-NW 337 -2,3 C 0,0 C 0,0 km/h (0 Bft)
23.02.2014 07:25 -0,1 C 85 % 1022,1 hPa 0,0 l/m 0,0 km/h (0 Bft) N-NO 22 -2,3 C 0,0 C 0,0 km/h (0 Bft)
23.02.2014 07:30 0,0 C 85 % 1022,0 hPa 0,0 l/m 0,0 km/h (0 Bft) N 360 -2,2 C 0,0 C 0,0 km/h (0 Bft)
23.02.2014 07:35 -0,1 C 85 % 1022,0 hPa 0,0 l/m 0,0 km/h (0 Bft) N-NO 22 -2,3 C -0,2 C 0,0 km/h (0 Bft)
23.02.2014 07:40 -0,1 C 85 % 1022,0 hPa 0,0 l/m 0,0 km/h (0 Bft) N-NO 22 -2,3 C -0,3 C 0,0 km/h (0 Bft)
23.02.2014 07:45 -0,1 C 84 % 1022,0 hPa 0,0 l/m 0,0 km/h (0 Bft) N-NO 22 -2,5 C -0,4 C 0,0 km/h (0 Bft)
23.02.2014 07:50 -0,1 C 84 % 1022,2 hPa 0,0 l/m 0,0 km/h (0 Bft) N-NO 22 -2,5 C -0,4 C 0,0 km/h (0 Bft)
23.02.2014 07:55 -0,4 C 84 % 1022,2 hPa 0,0 l/m 0,0 km/h (0 Bft) N-NO 22 -2,8 C -0,5 C 0,0 km/h (0 Bft)
23.02.2014 08:00 -0,6 C 85 % 1022,2 hPa 0,0 l/m 0,2 km/h (0 Bft) N-NO 22 -2,8 C -1,0 C 2,3 km/h (1 Bft)
23.02.2014 08:05 -0,7 C 85 % 1022,2 hPa 0,0 l/m 1,0 km/h (0 Bft) NO 45 -2,9 C -1,1 C 2,3 km/h (1 Bft)
23.02.2014 08:10 -0,9 C 85 % 1022,2 hPa 0,0 l/m 2,1 km/h (1 Bft) NO 45 -3,1 C -1,3 C 2,3 km/h (1 Bft)
23.02.2014 08:15 -0,9 C 85 % 1022,2 hPa 0,0 l/m 1,4 km/h (1 Bft) NO 45 -3,1 C -1,4 C 0,0 km/h (0 Bft)
23.02.2014 08:20 -1,2 C 85 % 1022,2 hPa 0,0 l/m 0,5 km/h (0 Bft) O 90 -3,4 C -1,5 C 0,0 km/h (0 Bft)
23.02.2014 08:25 -1,1 C 85 % 1022,2 hPa 0,0 l/m 1,1 km/h (1 Bft) NO 45 -3,3 C -1,5 C 3,5 km/h (1 Bft)
23.02.2014 08:30 -1,0 C 85 % 1022,4 hPa 0,0 l/m 1,8 km/h (1 Bft) NO 45 -3,2 C -1,4 C 0,0 km/h (0 Bft)
23.02.2014 08:35 -1,2 C 85 % 1022,4 hPa 0,0 l/m 1,3 km/h (1 Bft) N-NW 337 -3,4 C -1,4 C 0,0 km/h (0 Bft)
23.02.2014 08:40 -1,2 C 86 % 1022,4 hPa 0,0 l/m 0,6 km/h (0 Bft) S-SO 157 -3,2 C -1,3 C 2,7 km/h (1 Bft)
23.02.2014 08:45 -1,1 C 86 % 1022,4 hPa 0,0 l/m 0,6 km/h (0 Bft) O 90 -3,1 C -1,0 C 0,0 km/h (0 Bft)
23.02.2014 08:50 -0,9 C 86 % 1022,4 hPa 0,0 l/m 1,6 km/h (1 Bft) NO 45 -2,9 C 0,4 C 2,6 km/h (1 Bft)
23.02.2014 08:55 -0,8 C 86 % 1022,4 hPa 0,0 l/m 1,4 km/h (1 Bft) NO 45 -2,8 C 1,5 C 0,0 km/h (0 Bft)
23.02.2014 09:00 -0,8 C 86 % 1022,4 hPa 0,0 l/m 0,5 km/h (0 Bft) O 90 -2,8 C 4,6 C 0,0 km/h (0 Bft)
23.02.2014 09:05 -0,6 C 86 % 1022,4 hPa 0,0 l/m 0,0 km/h (0 Bft) O 90 -2,6 C 6,4 C 0,0 km/h (0 Bft)
23.02.2014 09:10 0,0 C 86 % 1022,3 hPa 0,0 l/m 0,2 km/h (0 Bft) O 90 -2,1 C 7,8 C 0,0 km/h (0 Bft)
23.02.2014 09:15 0,1 C 86 % 1022,3 hPa 0,0 l/m 0,6 km/h (0 Bft) O-NO 67 -2,0 C 8,1 C 1,9 km/h (1 Bft)
23.02.2014 09:20 0,3 C 86 % 1022,3 hPa 0,0 l/m 1,0 km/h (0 Bft) N-NO 22 -1,8 C 8,8 C 3,9 km/h (1 Bft)
23.02.2014 09:25 0,4 C 85 % 1022,3 hPa 0,0 l/m 1,6 km/h (1 Bft) N 360 -1,8 C 8,7 C 6,1 km/h (2 Bft)
23.02.2014 09:30 0,7 C 85 % 1022,4 hPa 0,0 l/m 3,2 km/h (1 Bft) W-NW 292 -1,5 C 8,1 C 4,0 km/h (1 Bft)
23.02.2014 09:35 0,9 C 84 % 1022,4 hPa 0,0 l/m 3,2 km/h (1 Bft) N 360 -1,5 C 7,8 C 4,3 km/h (1 Bft)
23.02.2014 09:40 1,6 C 82 % 1022,4 hPa 0,0 l/m 3,5 km/h (1 Bft) N-NW 337 -1,1 C 7,1 C 3,4 km/h (1 Bft)
23.02.2014 09:45 1,8 C 79 % 1022,4 hPa 0,0 l/m 4,5 km/h (1 Bft) N-NW 337 -1,4 C 6,1 C 5,5 km/h (1 Bft)
23.02.2014 09:50 2,0 C 78 % 1022,5 hPa 0,0 l/m 4,5 km/h (1 Bft) N-NW 337 -1,4 C 5,2 C 6,0 km/h (2 Bft)
23.02.2014 09:55 2,3 C 76 % 1022,5 hPa 0,0 l/m 4,3 km/h (1 Bft) N 360 -1,5 C 4,8 C 7,2 km/h (2 Bft)
23.02.2014 10:00 2,7 C 74 % 1022,5 hPa 0,0 l/m 4,8 km/h (1 Bft) N-NW 337 -1,5 C 3,8 C 7,4 km/h (2 Bft)
23.02.2014 10:05 2,7 C 72 % 1022,5 hPa 0,0 l/m 5,6 km/h (1 Bft) N-NW 337 -1,8 C 3,3 C 7,2 km/h (2 Bft)
23.02.2014 10:10 3,4 C 68 % 1022,8 hPa 0,0 l/m 5,6 km/h (1 Bft) N 360 -1,9 C 3,6 C 10,6 km/h (2 Bft)
23.02.2014 10:15 3,4 C 67 % 1022,8 hPa 0,0 l/m 4,5 km/h (1 Bft) N-NW 337 -2,1 C 4,8 C 6,9 km/h (2 Bft)
23.02.2014 10:20 3,7 C 64 % 1022,8 hPa 0,0 l/m 4,3 km/h (1 Bft) N-NW 337 -2,5 C 6,0 C 6,6 km/h (2 Bft)
23.02.2014 10:25 3,6 C 62 % 1022,8 hPa 0,0 l/m 5,3 km/h (1 Bft) N 360 -3,0 C 6,5 C 5,3 km/h (1 Bft)
23.02.2014 10:30 3,8 C 60 % 1023,0 hPa 0,0 l/m 6,0 km/h (2 Bft) N-NW 337 -3,2 C 7,3 C 12,7 km/h (3 Bft)
23.02.2014 10:35 3,9 C 59 % 1023,0 hPa 0,0 l/m 5,8 km/h (2 Bft) N-NW 337 -3,4 C 8,1 C 5,6 km/h (1 Bft)
23.02.2014 10:40 5,2 C 56 % 1023,0 hPa 0,0 l/m 5,8 km/h (2 Bft) N 360 -2,8 C 8,6 C 7,6 km/h (2 Bft)
23.02.2014 10:45 5,5 C 52 % 1023,0 hPa 0,0 l/m 6,3 km/h (2 Bft) N-NW 337 -3,6 C 8,6 C 7,4 km/h (2 Bft)
23.02.2014 10:50 6,6 C 50 % 1023,1 hPa 0,0 l/m 5,8 km/h (2 Bft) NW 315 -3,1 C 9,3 C 4,8 km/h (1 Bft)
23.02.2014 10:55 6,6 C 47 % 1023,1 hPa 0,0 l/m 5,6 km/h (1 Bft) N 360 -3,9 C 9,6 C 4,7 km/h (1 Bft)
23.02.2014 11:00 6,2 C 47 % 1023,1 hPa 0,0 l/m 6,1 km/h (2 Bft) N-NO 22 -4,3 C 9,4 C 7,1 km/h (2 Bft)
23.02.2014 11:05 6,0 C 49 % 1023,1 hPa 0,0 l/m 6,4 km/h (2 Bft) N 360 -3,9 C 9,2 C 8,4 km/h (2 Bft)
23.02.2014 11:10 5,6 C 51 % 1023,0 hPa 0,0 l/m 6,3 km/h (2 Bft) N-NW 337 -3,7 C 9,5 C 8,0 km/h (2 Bft)
23.02.2014 11:15 5,6 C 52 % 1023,0 hPa 0,0 l/m 5,8 km/h (2 Bft) N-NW 337 -3,5 C 10,1 C 8,0 km/h (2 Bft)
23.02.2014 11:20 5,7 C 52 % 1023,0 hPa 0,0 l/m 6,3 km/h (2 Bft) N 360 -3,4 C 9,8 C 6,4 km/h (2 Bft)
23.02.2014 11:25 6,4 C 50 % 1023,0 hPa 0,0 l/m 6,3 km/h (2 Bft) NW 315 -3,2 C 9,7 C 5,0 km/h (1 Bft)
23.02.2014 11:30 7,7 C 46 % 1023,1 hPa 0,0 l/m 4,0 km/h (1 Bft) N-NW 337 -3,2 C 11,2 C 5,5 km/h (1 Bft)
23.02.2014 11:33 8,1 C 45 % 1023,1 hPa 0,0 l/m 3,2 km/h (1 Bft) N 360 -3,1 C 11,5 C 0,0 km/h (0 Bft)
23.02.2014 11:35 8,1 C 45 % 1023,1 hPa 0,0 l/m 3,2 km/h (1 Bft) N 360 -3,1 C 11,5 C 0,0 km/h (0 Bft)
23.02.2014 11:40 8,9 C 46 % 1023,1 hPa 0,0 l/m 4,0 km/h (1 Bft) N 360 -2,1 C 11,7 C 6,0 km/h (2 Bft)
23.02.2014 11:45 9,4 C 45 % 1023,1 hPa 0,0 l/m 4,2 km/h (1 Bft) W-SW 247 -1,9 C 11,7 C 6,9 km/h (2 Bft)
23.02.2014 11:50 8,7 C 43 % 1023,3 hPa 0,0 l/m 5,0 km/h (1 Bft) N-NW 337 -3,2 C 11,7 C 6,1 km/h (2 Bft)
23.02.2014 11:55 8,7 C 43 % 1023,3 hPa 0,0 l/m 4,5 km/h (1 Bft) W 270 -3,2 C 11,9 C 6,8 km/h (2 Bft)
23.02.2014 12:00 9,3 C 41 % 1023,3 hPa 0,0 l/m 4,8 km/h (1 Bft) W 270 -3,3 C 11,8 C 7,1 km/h (2 Bft)
23.02.2014 12:05 9,0 C 42 % 1023,3 hPa 0,0 l/m 6,1 km/h (2 Bft) NW 315 -3,2 C 11,0 C 6,1 km/h (2 Bft)
23.02.2014 12:10 9,0 C 43 % 1023,4 hPa 0,0 l/m 5,6 km/h (1 Bft) N 360 -2,9 C 11,5 C 6,0 km/h (2 Bft)
23.02.2014 12:15 8,8 C 42 % 1023,4 hPa 0,0 l/m 4,0 km/h (1 Bft) W-NW 292 -3,4 C 12,4 C 7,7 km/h (2 Bft)
23.02.2014 12:20 9,3 C 42 % 1023,4 hPa 0,0 l/m 4,0 km/h (1 Bft) W 270 -2,9 C 12,2 C 6,6 km/h (2 Bft)
23.02.2014 12:25 9,5 C 41 % 1023,4 hPa 0,0 l/m 4,7 km/h (1 Bft) W 270 -3,1 C 12,2 C 3,5 km/h (1 Bft)
23.02.2014 12:30 8,3 C 41 % 1023,2 hPa 0,0 l/m 4,5 km/h (1 Bft) N-NO 22 -4,2 C 12,2 C 2,4 km/h (1 Bft)
23.02.2014 12:35 8,6 C 41 % 1023,2 hPa 0,0 l/m 4,7 km/h (1 Bft) NO 45 -3,9 C 12,3 C 8,2 km/h (2 Bft)
23.02.2014 12:40 9,0 C 42 % 1023,2 hPa 0,0 l/m 5,5 km/h (1 Bft) W-SW 247 -3,2 C 11,9 C 8,9 km/h (2 Bft)
23.02.2014 12:45 9,2 C 43 % 1023,2 hPa 0,0 l/m 5,8 km/h (2 Bft) W 270 -2,7 C 11,6 C 5,6 km/h (1 Bft)
23.02.2014 12:50 8,8 C 42 % 1023,1 hPa 0,0 l/m 5,6 km/h (1 Bft) N 360 -3,4 C 11,5 C 7,2 km/h (2 Bft)
23.02.2014 12:55 8,7 C 42 % 1023,1 hPa 0,0 l/m 5,6 km/h (1 Bft) W 270 -3,5 C 11,7 C 6,9 km/h (2 Bft)
23.02.2014 13:00 8,4 C 42 % 1023,1 hPa 0,0 l/m 5,1 km/h (1 Bft) NW 315 -3,8 C 11,7 C 7,6 km/h (2 Bft)
23.02.2014 13:05 8,7 C 43 % 1023,1 hPa 0,0 l/m 5,1 km/h (1 Bft) W-NW 292 -3,2 C 11,8 C 4,7 km/h (1 Bft)
23.02.2014 13:10 9,0 C 44 % 1023,0 hPa 0,0 l/m 3,9 km/h (1 Bft) W 270 -2,6 C 12,3 C 0,0 km/h (0 Bft)
23.02.2014 13:15 9,2 C 42 % 1023,0 hPa 0,0 l/m 2,4 km/h (1 Bft) NW 315 -3,0 C 13,2 C 3,4 km/h (1 Bft)
23.02.2014 13:20 8,8 C 42 % 1023,0 hPa 0,0 l/m 2,6 km/h (1 Bft) W-NW 292 -3,4 C 13,6 C 2,4 km/h (1 Bft)
23.02.2014 13:25 9,3 C 43 % 1023,0 hPa 0,0 l/m 3,2 km/h (1 Bft) NO 45 -2,6 C 13,6 C 2,9 km/h (1 Bft)
23.02.2014 13:30 10,3 C 43 % 1022,6 hPa 0,0 l/m 2,1 km/h (1 Bft) W-SW 247 -1,7 C 14,4 C 2,4 km/h (1 Bft)
23.02.2014 13:35 9,5 C 41 % 1022,6 hPa 0,0 l/m 3,4 km/h (1 Bft) W 270 -3,1 C 14,1 C 5,8 km/h (2 Bft)
23.02.2014 13:40 9,9 C 43 % 1022,6 hPa 0,0 l/m 5,1 km/h (1 Bft) W-NW 292 -2,1 C 13,3 C 6,3 km/h (2 Bft)
23.02.2014 13:45 9,8 C 42 % 1022,6 hPa 0,0 l/m 4,8 km/h (1 Bft) W-NW 292 -2,5 C 13,3 C 7,1 km/h (2 Bft)
23.02.2014 13:50 9,6 C 42 % 1022,4 hPa 0,0 l/m 5,6 km/h (1 Bft) W-NW 292 -2,7 C 13,0 C 10,6 km/h (2 Bft)
23.02.2014 13:55 9,8 C 42 % 1022,4 hPa 0,0 l/m 5,8 km/h (2 Bft) W 270 -2,5 C 12,2 C 4,3 km/h (1 Bft)
23.02.2014 14:00 10,5 C 42 % 1022,4 hPa 0,0 l/m 5,1 km/h (1 Bft) S 180 -1,9 C 12,5 C 0,0 km/h (0 Bft)
23.02.2014 14:05 10,5 C 41 % 1022,4 hPa 0,0 l/m 4,2 km/h (1 Bft) W-NW 292 -2,2 C 13,1 C 7,2 km/h (2 Bft)
23.02.2014 14:10 10,1 C 40 % 1022,3 hPa 0,0 l/m 4,5 km/h (1 Bft) N 360 -2,9 C 13,1 C 3,7 km/h (1 Bft)
23.02.2014 14:15 9,7 C 40 % 1022,3 hPa 0,0 l/m 4,8 km/h (1 Bft) O 90 -3,2 C 13,4 C 2,1 km/h (1 Bft)
23.02.2014 14:20 10,6 C 41 % 1022,3 hPa 0,0 l/m 3,4 km/h (1 Bft) W-NW 292 -2,1 C 14,0 C 7,2 km/h (2 Bft)
23.02.2014 14:25 10,2 C 40 % 1022,3 hPa 0,0 l/m 4,0 km/h (1 Bft) W 270 -2,8 C 13,8 C 6,8 km/h (2 Bft)
23.02.2014 14:30 9,8 C 40 % 1022,0 hPa 0,0 l/m 5,1 km/h (1 Bft) W-SW 247 -3,1 C 13,3 C 3,4 km/h (1 Bft)
23.02.2014 14:35 9,4 C 40 % 1022,0 hPa 0,0 l/m 4,7 km/h (1 Bft) N-NW 337 -3,5 C 13,4 C 5,8 km/h (2 Bft)
23.02.2014 14:40 9,8 C 40 % 1022,0 hPa 0,0 l/m 4,7 km/h (1 Bft) NW 315 -3,1 C 13,4 C 4,3 km/h (1 Bft)
23.02.2014 14:45 10,2 C 40 % 1022,0 hPa 0,0 l/m 5,0 km/h (1 Bft) W-SW 247 -2,8 C 13,4 C 5,8 km/h (2 Bft)
23.02.2014 14:50 9,9 C 40 % 1021,8 hPa 0,0 l/m 5,0 km/h (1 Bft) W-NW 292 -3,1 C 13,7 C 6,8 km/h (2 Bft)
23.02.2014 14:55 9,9 C 41 % 1021,8 hPa 0,0 l/m 4,8 km/h (1 Bft) N 360 -2,7 C 13,6 C 7,2 km/h (2 Bft)
23.02.2014 15:00 9,6 C 41 % 1021,8 hPa 0,0 l/m 4,8 km/h (1 Bft) NW 315 -3,0 C 13,6 C 0,0 km/h (0 Bft)
23.02.2014 15:05 9,8 C 41 % 1021,8 hPa 0,0 l/m 4,3 km/h (1 Bft) NW 315 -2,8 C 13,9 C 4,2 km/h (1 Bft)
23.02.2014 15:10 9,8 C 41 % 1021,8 hPa 0,0 l/m 3,5 km/h (1 Bft) W 270 -2,8 C 13,8 C 5,1 km/h (1 Bft)
23.02.2014 15:15 9,4 C 41 % 1021,8 hPa 0,0 l/m 4,5 km/h (1 Bft) N-NW 337 -3,2 C 13,0 C 5,3 km/h (1 Bft)
23.02.2014 15:20 9,1 C 41 % 1021,8 hPa 0,0 l/m 4,3 km/h (1 Bft) O-SO 112 -3,4 C 11,4 C 2,1 km/h (1 Bft)
23.02.2014 15:25 9,3 C 42 % 1021,8 hPa 0,0 l/m 3,5 km/h (1 Bft) N 360 -2,9 C 10,7 C 3,7 km/h (1 Bft)
23.02.2014 15:30 9,5 C 42 % 1021,6 hPa 0,0 l/m 3,4 km/h (1 Bft) N-NW 337 -2,8 C 10,2 C 6,4 km/h (2 Bft)
23.02.2014 15:35 9,2 C 42 % 1021,6 hPa 0,0 l/m 4,3 km/h (1 Bft) N-NW 337 -3,0 C 10,2 C 6,9 km/h (2 Bft)
23.02.2014 15:40 8,9 C 41 % 1021,6 hPa 0,0 l/m 4,7 km/h (1 Bft) N-NO 22 -3,6 C 10,9 C 4,2 km/h (1 Bft)
23.02.2014 15:45 9,2 C 42 % 1021,6 hPa 0,0 l/m 4,8 km/h (1 Bft) N-NO 22 -3,0 C 11,9 C 8,2 km/h (2 Bft)
23.02.2014 15:50 8,9 C 42 % 1021,3 hPa 0,0 l/m 4,0 km/h (1 Bft) N-NW 337 -3,3 C 12,4 C 4,8 km/h (1 Bft)
23.02.2014 15:55 8,5 C 43 % 1021,3 hPa 0,0 l/m 4,8 km/h (1 Bft) W-NW 292 -3,3 C 12,7 C 6,3 km/h (2 Bft)
23.02.2014 16:00 7,9 C 45 % 1021,3 hPa 0,0 l/m 5,5 km/h (1 Bft) N 360 -3,3 C 12,6 C 7,1 km/h (2 Bft)
23.02.2014 16:05 7,5 C 47 % 1021,3 hPa 0,0 l/m 5,3 km/h (1 Bft) NO 45 -3,1 C 12,6 C 7,6 km/h (2 Bft)
23.02.2014 16:10 7,1 C 49 % 1021,4 hPa 0,0 l/m 5,3 km/h (1 Bft) N 360 -2,9 C 12,2 C 6,8 km/h (2 Bft)
23.02.2014 16:15 6,8 C 50 % 1021,4 hPa 0,0 l/m 5,6 km/h (1 Bft) N 360 -2,9 C 11,9 C 2,6 km/h (1 Bft)
23.02.2014 16:20 6,4 C 50 % 1021,4 hPa 0,0 l/m 4,2 km/h (1 Bft) N 360 -3,2 C 12,3 C 5,0 km/h (1 Bft)
23.02.2014 16:25 6,2 C 51 % 1021,4 hPa 0,0 l/m 2,6 km/h (1 Bft) NO 45 -3,2 C 12,7 C 1,9 km/h (1 Bft)
23.02.2014 16:28 6,4 C 52 % 1021,2 hPa 0,0 l/m 3,5 km/h (1 Bft) NO 45 -2,7 C 12,7 C 2,7 km/h (1 Bft)
23.02.2014 16:30 6,4 C 52 % 1021,2 hPa 0,0 l/m 3,5 km/h (1 Bft) NO 45 -2,7 C 12,7 C 2,7 km/h (1 Bft)
23.02.2014 16:35 6,0 C 52 % 1021,2 hPa 0,0 l/m 3,9 km/h (1 Bft) N-NW 337 -3,1 C 12,5 C 6,8 km/h (2 Bft)
23.02.2014 16:40 5,8 C 54 % 1021,2 hPa 0,0 l/m 3,4 km/h (1 Bft) NO 45 -2,8 C 12,3 C 4,2 km/h (1 Bft)
23.02.2014 16:45 5,7 C 55 % 1021,2 hPa 0,0 l/m 3,2 km/h (1 Bft) W-SW 247 -2,6 C 11,5 C 3,4 km/h (1 Bft)
23.02.2014 16:50 5,5 C 56 % 1021,0 hPa 0,0 l/m 3,4 km/h (1 Bft) W-NW 292 -2,6 C 9,8 C 4,8 km/h (1 Bft)
23.02.2014 16:55 5,4 C 56 % 1021,0 hPa 0,0 l/m 3,5 km/h (1 Bft) O-NO 67 -2,7 C 8,8 C 3,4 km/h (1 Bft)
23.02.2014 17:00 5,4 C 57 % 1021,0 hPa 0,0 l/m 4,2 km/h (1 Bft) N-NO 22 -2,4 C 7,3 C 5,5 km/h (1 Bft)
23.02.2014 17:05 5,3 C 57 % 1021,0 hPa 0,0 l/m 3,7 km/h (1 Bft) O-NO 67 -2,5 C 6,9 C 2,3 km/h (1 Bft)
23.02.2014 17:10 5,2 C 57 % 1020,8 hPa 0,0 l/m 3,1 km/h (1 Bft) O-NO 67 -2,6 C 6,3 C 5,6 km/h (1 Bft)
23.02.2014 17:15 5,3 C 57 % 1020,8 hPa 0,0 l/m 3,1 km/h (1 Bft) O-NO 67 -2,5 C 6,0 C 2,4 km/h (1 Bft)
23.02.2014 17:20 4,8 C 58 % 1020,8 hPa 0,0 l/m 2,6 km/h (1 Bft) NO 45 -2,7 C 5,7 C 2,9 km/h (1 Bft)
23.02.2014 17:25 4,9 C 58 % 1020,8 hPa 0,0 l/m 2,6 km/h (1 Bft) O 90 -2,7 C 6,0 C 6,6 km/h (2 Bft)
23.02.2014 17:30 4,5 C 58 % 1020,8 hPa 0,0 l/m 3,2 km/h (1 Bft) NO 45 -3,0 C 6,2 C 4,2 km/h (1 Bft)
23.02.2014 17:35 4,4 C 58 % 1020,8 hPa 0,0 l/m 3,5 km/h (1 Bft) NO 45 -3,1 C 5,6 C 2,9 km/h (1 Bft)
23.02.2014 17:40 4,2 C 59 % 1020,8 hPa 0,0 l/m 3,1 km/h (1 Bft) NO 45 -3,1 C 5,1 C 4,8 km/h (1 Bft)
23.02.2014 17:45 4,0 C 59 % 1020,8 hPa 0,0 l/m 3,1 km/h (1 Bft) NO 45 -3,3 C 4,4 C 4,8 km/h (1 Bft)
23.02.2014 17:50 3,9 C 60 % 1020,6 hPa 0,0 l/m 3,4 km/h (1 Bft) O 90 -3,1 C 3,6 C 4,0 km/h (1 Bft)
23.02.2014 17:55 3,8 C 60 % 1020,6 hPa 0,0 l/m 3,9 km/h (1 Bft) O-NO 67 -3,2 C 3,2 C 4,8 km/h (1 Bft)
23.02.2014 18:00 3,5 C 61 % 1020,6 hPa 0,0 l/m 4,2 km/h (1 Bft) NO 45 -3,3 C 2,7 C 4,5 km/h (1 Bft)
23.02.2014 18:05 3,3 C 61 % 1020,6 hPa 0,0 l/m 4,2 km/h (1 Bft) O-NO 67 -3,5 C 2,6 C 3,9 km/h (1 Bft)
23.02.2014 18:10 3,1 C 62 % 1020,6 hPa 0,0 l/m 4,2 km/h (1 Bft) O-NO 67 -3,5 C 2,2 C 4,3 km/h (1 Bft)
23.02.2014 18:15 2,9 C 64 % 1020,6 hPa 0,0 l/m 4,2 km/h (1 Bft) O-NO 67 -3,2 C 2,1 C 4,8 km/h (1 Bft)
23.02.2014 18:20 2,8 C 64 % 1020,6 hPa 0,0 l/m 4,2 km/h (1 Bft) N-NO 22 -3,3 C 1,9 C 4,8 km/h (1 Bft)
23.02.2014 18:25 2,7 C 65 % 1020,6 hPa 0,0 l/m 4,0 km/h (1 Bft) O-NO 67 -3,2 C 1,8 C 3,7 km/h (1 Bft)
23.02.2014 18:30 2,6 C 65 % 1020,4 hPa 0,0 l/m 3,2 km/h (1 Bft) O 90 -3,3 C 1,9 C 3,5 km/h (1 Bft)
23.02.2014 18:35 2,6 C 66 % 1020,4 hPa 0,0 l/m 3,1 km/h (1 Bft) NO 45 -3,1 C 1,9 C 5,3 km/h (1 Bft)
23.02.2014 18:40 2,4 C 66 % 1020,4 hPa 0,0 l/m 3,1 km/h (1 Bft) O-NO 67 -3,3 C 1,6 C 3,9 km/h (1 Bft)
23.02.2014 18:45 2,1 C 66 % 1020,4 hPa 0,0 l/m 2,1 km/h (1 Bft) O-NO 67 -3,6 C 1,6 C 0,0 km/h (0 Bft)
23.02.2014 18:50 1,0 C 66 % 1020,7 hPa 0,0 l/m 0,5 km/h (0 Bft) O 90 -4,6 C 0,9 C 0,0 km/h (0 Bft)
23.02.2014 18:55 1,4 C 68 % 1020,7 hPa 0,0 l/m 0,2 km/h (0 Bft) NO 45 -3,8 C 0,6 C 0,0 km/h (0 Bft)
23.02.2014 19:00 0,6 C 68 % 1020,7 hPa 0,0 l/m 0,2 km/h (0 Bft) N 360 -4,6 C 0,2 C 0,0 km/h (0 Bft)
23.02.2014 19:05 0,2 C 68 % 1020,7 hPa 0,0 l/m 0,0 km/h (0 Bft) SO 135 -5,0 C -0,2 C 0,0 km/h (0 Bft)
23.02.2014 19:10 0,0 C 69 % 1020,8 hPa 0,0 l/m 0,0 km/h (0 Bft) SO 135 -5,0 C -0,6 C 0,0 km/h (0 Bft)
23.02.2014 19:15 -0,3 C 70 % 1020,8 hPa 0,0 l/m 0,0 km/h (0 Bft) SO 135 -5,1 C -0,8 C 0,0 km/h (0 Bft)
23.02.2014 19:20 0,4 C 72 % 1020,8 hPa 0,0 l/m 0,0 km/h (0 Bft) O-NO 67 -4,0 C -1,0 C 0,0 km/h (0 Bft)
23.02.2014 19:25 0,1 C 72 % 1020,8 hPa 0,0 l/m 0,0 km/h (0 Bft) O-NO 67 -4,3 C -1,0 C 0,0 km/h (0 Bft)
23.02.2014 19:30 -0,5 C 72 % 1020,8 hPa 0,0 l/m 0,0 km/h (0 Bft) O-NO 67 -4,9 C -1,4 C 0,0 km/h (0 Bft)
23.02.2014 19:35 -0,2 C 74 % 1020,8 hPa 0,0 l/m 0,0 km/h (0 Bft) O-NO 67 -4,3 C -1,6 C 0,0 km/h (0 Bft)
23.02.2014 19:40 -0,8 C 73 % 1020,8 hPa 0,0 l/m 0,0 km/h (0 Bft) O-NO 67 -5,0 C -2,0 C 0,0 km/h (0 Bft)
23.02.2014 19:45 -1,1 C 74 % 1020,8 hPa 0,0 l/m 0,0 km/h (0 Bft) O-SO 112 -5,1 C -2,2 C 0,0 km/h (0 Bft)
23.02.2014 19:50 -1,3 C 75 % 1020,4 hPa 0,0 l/m 0,0 km/h (0 Bft) O 90 -5,1 C -2,4 C 0,0 km/h (0 Bft)
23.02.2014 19:55 -1,3 C 75 % 1020,4 hPa 0,0 l/m 0,0 km/h (0 Bft) O 90 -5,1 C -2,5 C 0,0 km/h (0 Bft)
23.02.2014 20:00 -1,6 C 75 % 1020,4 hPa 0,0 l/m 0,0 km/h (0 Bft) O 90 -5,4 C -2,6 C 0,0 km/h (0 Bft)
23.02.2014 20:05 -2,0 C 75 % 1020,4 hPa 0,0 l/m 0,0 km/h (0 Bft) O 90 -5,8 C -2,7 C 0,0 km/h (0 Bft)
23.02.2014 20:10 -2,2 C 76 % 1020,4 hPa 0,0 l/m 0,0 km/h (0 Bft) O 90 -5,8 C -2,9 C 0,0 km/h (0 Bft)
23.02.2014 20:15 -2,1 C 76 % 1020,4 hPa 0,0 l/m 0,0 km/h (0 Bft) O-NO 67 -5,7 C -3,1 C 0,0 km/h (0 Bft)
23.02.2014 20:20 -2,2 C 76 % 1020,4 hPa 0,0 l/m 0,0 km/h (0 Bft) NO 45 -5,8 C -3,0 C 0,0 km/h (0 Bft)
23.02.2014 20:25 -2,5 C 77 % 1020,4 hPa 0,0 l/m 0,0 km/h (0 Bft) NO 45 -6,0 C -3,0 C 0,0 km/h (0 Bft)
23.02.2014 20:30 -2,2 C 78 % 1020,4 hPa 0,0 l/m 0,0 km/h (0 Bft) NO 45 -5,5 C -3,2 C 0,0 km/h (0 Bft)
23.02.2014 20:35 -2,1 C 78 % 1020,4 hPa 0,0 l/m 0,0 km/h (0 Bft) NO 45 -5,4 C -3,1 C 0,0 km/h (0 Bft)
23.02.2014 20:40 -2,7 C 78 % 1020,4 hPa 0,0 l/m 0,0 km/h (0 Bft) NO 45 -6,0 C -3,2 C 0,0 km/h (0 Bft)
23.02.2014 20:45 -3,1 C 78 % 1020,4 hPa 0,0 l/m 0,0 km/h (0 Bft) NO 45 -6,4 C -3,3 C 0,0 km/h (0 Bft)
23.02.2014 20:50 -2,9 C 78 % 1020,2 hPa 0,0 l/m 0,0 km/h (0 Bft) NO 45 -6,2 C -3,4 C 0,0 km/h (0 Bft)
23.02.2014 20:55 -3,1 C 78 % 1020,2 hPa 0,0 l/m 0,0 km/h (0 Bft) NO 45 -6,4 C -3,5 C 0,0 km/h (0 Bft)
23.02.2014 21:00 -2,9 C 79 % 1020,2 hPa 0,0 l/m 0,0 km/h (0 Bft) S-SO 157 -6,0 C -3,6 C 0,0 km/h (0 Bft)
23.02.2014 21:05 -3,2 C 79 % 1020,2 hPa 0,0 l/m 0,0 km/h (0 Bft) SO 135 -6,3 C -3,7 C 0,0 km/h (0 Bft)
23.02.2014 21:10 -3,2 C 79 % 1020,2 hPa 0,0 l/m 0,0 km/h (0 Bft) O-SO 112 -6,3 C -3,8 C 0,0 km/h (0 Bft)
23.02.2014 21:15 -3,4 C 79 % 1020,2 hPa 0,0 l/m 0,0 km/h (0 Bft) S-SO 157 -6,5 C -3,9 C 0,0 km/h (0 Bft)
23.02.2014 21:20 -3,6 C 80 % 1020,2 hPa 0,0 l/m 0,0 km/h (0 Bft) S-SO 157 -6,5 C -4,1 C 0,0 km/h (0 Bft)
23.02.2014 21:25 -3,4 C 80 % 1020,2 hPa 0,0 l/m 0,0 km/h (0 Bft) S-SO 157 -6,3 C -4,2 C 0,0 km/h (0 Bft)
23.02.2014 21:28 -3,6 C 80 % 1020,2 hPa 0,0 l/m 0,0 km/h (0 Bft) O 90 -6,5 C -4,2 C 0,0 km/h (0 Bft)
23.02.2014 21:30 -3,6 C 80 % 1020,2 hPa 0,0 l/m 0,0 km/h (0 Bft) O 90 -6,5 C -4,2 C 0,0 km/h (0 Bft)
23.02.2014 21:35 -3,7 C 80 % 1020,2 hPa 0,0 l/m 0,0 km/h (0 Bft) NO 45 -6,6 C -4,2 C 0,0 km/h (0 Bft)
23.02.2014 21:40 -3,9 C 81 % 1020,2 hPa 0,0 l/m 0,0 km/h (0 Bft) NO 45 -6,7 C -4,1 C 0,0 km/h (0 Bft)
23.02.2014 21:45 -3,6 C 81 % 1020,2 hPa 0,0 l/m 0,0 km/h (0 Bft) NO 45 -6,4 C -4,1 C 0,0 km/h (0 Bft)
23.02.2014 21:50 -3,5 C 81 % 1020,4 hPa 0,0 l/m 0,0 km/h (0 Bft) NO 45 -6,3 C -4,1 C 0,0 km/h (0 Bft)
23.02.2014 21:55 -3,6 C 82 % 1020,4 hPa 0,0 l/m 0,0 km/h (0 Bft) O 90 -6,2 C -3,9 C 0,0 km/h (0 Bft)
23.02.2014 22:00 -3,7 C 82 % 1020,4 hPa 0,0 l/m 0,0 km/h (0 Bft) NO 45 -6,3 C -4,1 C 0,0 km/h (0 Bft)
23.02.2014 22:05 -3,9 C 82 % 1020,4 hPa 0,0 l/m 0,0 km/h (0 Bft) W 270 -6,5 C -4,0 C 0,0 km/h (0 Bft)
23.02.2014 22:10 -3,6 C 83 % 1020,2 hPa 0,0 l/m 0,0 km/h (0 Bft) N 360 -6,1 C -4,2 C 0,0 km/h (0 Bft)
23.02.2014 22:15 -3,6 C 83 % 1020,2 hPa 0,0 l/m 0,2 km/h (0 Bft) NO 45 -6,1 C -4,2 C 0,0 km/h (0 Bft)
23.02.2014 22:20 -3,9 C 83 % 1020,2 hPa 0,0 l/m 0,2 km/h (0 Bft) N 360 -6,4 C -4,2 C 0,0 km/h (0 Bft)
23.02.2014 22:25 -4,0 C 83 % 1020,2 hPa 0,0 l/m 0,0 km/h (0 Bft) N-NW 337 -6,4 C -4,1 C 0,0 km/h (0 Bft)
23.02.2014 22:30 -3,9 C 83 % 1020,1 hPa 0,0 l/m 0,0 km/h (0 Bft) N-NO 22 -6,4 C -4,2 C 0,0 km/h (0 Bft)
23.02.2014 22:35 -3,7 C 84 % 1020,1 hPa 0,0 l/m 0,0 km/h (0 Bft) N-NO 22 -6,0 C -4,3 C 0,0 km/h (0 Bft)
23.02.2014 22:40 -3,9 C 84 % 1020,1 hPa 0,0 l/m 0,0 km/h (0 Bft) NW 315 -6,2 C -4,4 C 0,0 km/h (0 Bft)
23.02.2014 22:45 -4,1 C 83 % 1020,1 hPa 0,0 l/m 0,0 km/h (0 Bft) NW 315 -6,5 C -4,5 C 0,0 km/h (0 Bft)
23.02.2014 22:50 -4,2 C 83 % 1019,9 hPa 0,0 l/m 0,0 km/h (0 Bft) NW 315 -6,6 C -4,6 C 0,0 km/h (0 Bft)
23.02.2014 22:55 -4,1 C 83 % 1019,9 hPa 0,0 l/m 0,0 km/h (0 Bft) N 360 -6,5 C -4,7 C 0,0 km/h (0 Bft)
23.02.2014 23:00 -4,1 C 83 % 1019,9 hPa 0,0 l/m 0,0 km/h (0 Bft) N-NW 337 -6,5 C -4,8 C 0,0 km/h (0 Bft)
23.02.2014 23:05 -4,1 C 84 % 1019,9 hPa 0,0 l/m 0,0 km/h (0 Bft) N 360 -6,4 C -4,7 C 0,0 km/h (0 Bft)
23.02.2014 23:10 -4,0 C 84 % 1019,9 hPa 0,0 l/m 0,0 km/h (0 Bft) N-NO 22 -6,3 C -4,6 C 0,0 km/h (0 Bft)
23.02.2014 23:15 -3,6 C 85 % 1019,9 hPa 0,0 l/m 0,8 km/h (0 Bft) O 90 -5,7 C -4,5 C 2,4 km/h (1 Bft)
23.02.2014 23:20 -3,7 C 85 % 1019,9 hPa 0,0 l/m 1,1 km/h (1 Bft) O-SO 112 -5,8 C -4,3 C 0,0 km/h (0 Bft)
23.02.2014 23:25 -4,0 C 85 % 1019,9 hPa 0,0 l/m 1,1 km/h (1 Bft) S 180 -6,1 C -4,2 C 2,1 km/h (1 Bft)
23.02.2014 23:30 -4,0 C 85 % 1019,6 hPa 0,0 l/m 0,6 km/h (0 Bft) S 180 -6,1 C -4,2 C 0,0 km/h (0 Bft)
23.02.2014 23:35 -4,1 C 85 % 1019,6 hPa 0,0 l/m 0,3 km/h (0 Bft) NW 315 -6,2 C -4,3 C 0,0 km/h (0 Bft)
23.02.2014 23:40 -4,3 C 85 % 1019,6 hPa 0,0 l/m 0,2 km/h (0 Bft) N 360 -6,4 C -4,4 C 0,0 km/h (0 Bft)
23.02.2014 23:45 -4,6 C 84 % 1019,6 hPa 0,0 l/m 0,2 km/h (0 Bft) NW 315 -6,9 C -4,5 C 0,0 km/h (0 Bft)
23.02.2014 23:50 -4,2 C 85 % 1019,5 hPa 0,0 l/m 0,0 km/h (0 Bft) N-NO 22 -6,3 C -4,8 C 0,0 km/h (0 Bft)
23.02.2014 23:55 -4,0 C 85 % 1019,5 hPa 0,0 l/m 0,3 km/h (0 Bft) O 90 -6,1 C -4,9 C 0,0 km/h (0 Bft)
_ Min-Zeit 23:45 14:50 23:55 - 23:50 - - 23:45 23:55 23:55
Minimum _ -4,6 C 40 % 1019,5 hPa - 0,0 km/h (0 Bft) - - -6,9 C -4,9 C 0,0 km/h (0 Bft)
_ Max-Zeit 14:20 09:20 12:25 23:55 11:05 - - 09:40 13:30 10:30
Maximum _ 10,6 C 86 % 1023,4 hPa 0,0 l/m 6,4 km/h
N (2 Bft)
- - -1,1 C 14,4 C 12,7 km/h
N-NW (3 Bft)
Durchschnitt _ 2,0 C 69 % 1021,3 hPa #0,0 l/m 2,0 km/h (1 Bft) N - -3,6 C 3,1 C 2,4 km/h (1 Bft)